Weather History for KMTV - October, 2012

Change the Weather History Date:

Tuesday, October 30, 2012

  Actual Average (KGSO) Record (KGSO)
Temperature  
Mean Temperature 46 °F 55 °F  
Max Temperature 48 °F 67 °F 83 °F (1961)
Min Temperature 44 °F 44 °F 25 °F (1965)
Degree Days  
Heating Degree Days 19 10  
Month to date heating degree days 192  
Since 1 July heating degree days 223  
Cooling Degree Days 0 0  
Month to date cooling degree days 35  
Year to date cooling degree days 1482  
Moisture  
Dew Point 28 °F    
Average Humidity 49    
Maximum Humidity 57    
Minimum Humidity 43    
Precipitation  
Precipitation 0.00 in 0.10 in 3.19 in (1949)
Month to date precipitation 3.02  
Year to date precipitation 36.00  
Sea Level Pressure  
Sea Level Pressure 29.42 in    
Wind  
Wind Speed 9 mph (West)    
Max Wind Speed 15 mph    
Max Gust Speed 33 mph    
Visibility 10 miles    
Events      
T = Trace of Precipitation, MM = Missing Value Source: NWS Daily Summary

Daily Weather History Graph

Daily Weather History Graph

Search for Another Location

Airport or City:

Trip Planner

Search our weather history database for the weather conditions in past years. The results will help you decide how hot, cold, wet, or windy it might be!

Date:

Astronomy

Oct. 30, 2012 Rise Set
Actual Time 7:42 AM EDT 6:24 PM EDT
Civil Twilight 7:15 AM EDT 6:51 PM EDT
Nautical Twilight 6:44 AM EDT 7:21 PM EDT
Astronomical Twilight 6:14 AM EDT 7:52 PM EDT
Moon 6:55 PM EDT (10/30) 8:25 AM EDT (10/30)
Length of Visible Light 11h 36m
Length of Day
10h 42m
Full, 99% of the Moon is Illuminated
Oct 30
Full
Nov 6
Last Quarter
Nov 13
New
Nov 20
First Quarter
Nov 28
Full

Hourly Weather History & Observations

Time (EDT) Temp. Windchill Dew Point Humidity Pressure Visibility Wind Dir Wind Speed Gust Speed Precip Events Conditions
12:15 AM 44.6 °F 40.2 °F 30.2 °F 57% 29.31 in 10.0 mi West 8.1 mph 17.3 mph N/A   Overcast
12:35 AM 44.6 °F 39.7 °F 30.2 °F 57% 29.31 in 10.0 mi West 9.2 mph 19.6 mph N/A   Overcast
12:55 AM 44.6 °F 41.4 °F 30.2 °F 57% 29.30 in 10.0 mi West 5.8 mph - N/A   Overcast
1:15 AM 44.6 °F 40.2 °F 28.4 °F 53% 29.29 in 10.0 mi West 8.1 mph - N/A   Overcast
1:35 AM 44.6 °F 40.2 °F 28.4 °F 53% 29.29 in 10.0 mi West 8.1 mph 20.7 mph N/A   Overcast
1:55 AM 46.4 °F 42.4 °F 28.4 °F 50% 29.28 in 10.0 mi WNW 8.1 mph 23.0 mph N/A   Overcast
2:15 AM 46.4 °F 40.7 °F 26.6 °F 46% 29.28 in 10.0 mi West 12.7 mph 28.8 mph N/A   Overcast
2:35 AM 46.4 °F 40.4 °F 26.6 °F 46% 29.27 in 10.0 mi West 13.8 mph 25.3 mph N/A   Overcast
2:55 AM 46.4 °F 42.4 °F 26.6 °F 46% 29.28 in 10.0 mi WNW 8.1 mph 19.6 mph N/A   Overcast
3:35 AM 46.4 °F 40.4 °F 26.6 °F 46% 29.27 in 10.0 mi WNW 13.8 mph 33.4 mph N/A   Overcast
3:55 AM 46.4 °F 40.7 °F 24.8 °F 43% 29.27 in 10.0 mi WNW 12.7 mph 33.4 mph N/A   Overcast
4:15 AM 46.4 °F 40.1 °F 24.8 °F 43% 29.28 in 10.0 mi WNW 15.0 mph 27.6 mph N/A   Overcast
4:55 AM 44.6 °F 38.4 °F 24.8 °F 46% 29.29 in 10.0 mi WNW 12.7 mph 31.1 mph N/A   Overcast
5:15 AM 44.6 °F 39.2 °F 24.8 °F 46% 29.29 in 10.0 mi WNW 10.4 mph 27.6 mph N/A   Overcast
5:35 AM 44.6 °F 38.8 °F 24.8 °F 46% 29.29 in 10.0 mi West 11.5 mph 20.7 mph N/A   Overcast
5:55 AM 44.6 °F 39.7 °F 24.8 °F 46% 29.30 in 10.0 mi West 9.2 mph 20.7 mph N/A   Overcast
6:15 AM 44.6 °F 39.2 °F 24.8 °F 46% 29.30 in 10.0 mi WNW 10.4 mph 24.2 mph N/A   Overcast
6:35 AM 44.6 °F 40.2 °F 24.8 °F 46% 29.31 in 10.0 mi West 8.1 mph - N/A   Overcast
6:55 AM 44.6 °F 40.7 °F 24.8 °F 46% 29.32 in 10.0 mi West 6.9 mph 18.4 mph N/A   Overcast
7:15 AM 44.6 °F 40.2 °F 24.8 °F 46% 29.32 in 10.0 mi West 8.1 mph - N/A   Overcast
7:35 AM 44.6 °F 41.4 °F 24.8 °F 46% 29.32 in 10.0 mi West 5.8 mph - N/A   Overcast
7:55 AM 44.6 °F 39.7 °F 24.8 °F 46% 29.33 in 10.0 mi West 9.2 mph - N/A   Overcast
8:15 AM 44.6 °F 41.4 °F 24.8 °F 46% 29.34 in 10.0 mi WSW 5.8 mph - N/A   Overcast
8:35 AM 44.6 °F 40.7 °F 26.6 °F 49% 29.35 in 10.0 mi West 6.9 mph - N/A   Mostly Cloudy
8:55 AM 44.6 °F 40.7 °F 26.6 °F 49% 29.35 in 10.0 mi West 6.9 mph 17.3 mph N/A   Scattered Clouds
9:35 AM 44.6 °F 39.7 °F 26.6 °F 49% 29.36 in 10.0 mi West 9.2 mph 21.9 mph N/A   Scattered Clouds
9:55 AM 44.6 °F 40.2 °F 26.6 °F 49% 29.37 in 10.0 mi West 8.1 mph - N/A   Scattered Clouds
10:15 AM 44.6 °F 40.7 °F 26.6 °F 49% 29.37 in 10.0 mi West 6.9 mph 21.9 mph N/A   Scattered Clouds
10:35 AM 44.6 °F 39.2 °F 26.6 °F 49% 29.37 in 10.0 mi West 10.4 mph 17.3 mph N/A   Scattered Clouds
10:55 AM 46.4 °F 41.5 °F 26.6 °F 46% 29.38 in 10.0 mi West 10.4 mph 19.6 mph N/A   Clear
11:15 AM 46.4 °F 42.4 °F 26.6 °F 46% 29.39 in 10.0 mi West 8.1 mph 18.4 mph N/A   Clear
11:35 AM 46.4 °F 40.7 °F 26.6 °F 46% 29.40 in 10.0 mi West 12.7 mph 19.6 mph N/A   Mostly Cloudy
11:55 AM 46.4 °F 42.9 °F 26.6 °F 46% 29.41 in 10.0 mi West 6.9 mph 17.3 mph N/A   Overcast
12:15 PM 46.4 °F 41.5 °F 26.6 °F 46% 29.41 in 10.0 mi West 10.4 mph 19.6 mph N/A   Mostly Cloudy
12:35 PM 48.2 °F - 26.6 °F 43% 29.42 in 10.0 mi West 8.1 mph 17.3 mph N/A   Overcast
12:55 PM 48.2 °F - 26.6 °F 43% 29.42 in 10.0 mi West 9.2 mph 21.9 mph N/A   Overcast
1:15 PM 48.2 °F - 26.6 °F 43% 29.42 in 10.0 mi WSW 10.4 mph 19.6 mph N/A   Overcast
1:35 PM 48.2 °F - 26.6 °F 43% 29.42 in 10.0 mi West 8.1 mph 18.4 mph N/A   Overcast
1:55 PM 48.2 °F - 26.6 °F 43% 29.42 in 10.0 mi West 8.1 mph - N/A   Overcast
2:15 PM 48.2 °F - 28.4 °F 46% 29.42 in 10.0 mi WSW 6.9 mph 17.3 mph N/A   Overcast
2:35 PM 48.2 °F - 28.4 °F 46% 29.43 in 10.0 mi West 5.8 mph - N/A   Overcast
2:55 PM 48.2 °F - 28.4 °F 46% 29.44 in 10.0 mi West 9.2 mph - N/A   Overcast
3:15 PM 48.2 °F - 28.4 °F 46% 29.45 in 10.0 mi West 9.2 mph - N/A   Mostly Cloudy
3:35 PM 46.4 °F 41.5 °F 28.4 °F 50% 29.45 in 10.0 mi WNW 10.4 mph 18.4 mph N/A   Mostly Cloudy
3:55 PM 46.4 °F 42.4 °F 28.4 °F 50% 29.46 in 10.0 mi West 8.1 mph - N/A   Mostly Cloudy
4:15 PM 46.4 °F 41.5 °F 28.4 °F 50% 29.47 in 10.0 mi West 10.4 mph 16.1 mph N/A   Overcast
4:35 PM 46.4 °F 41.5 °F 28.4 °F 50% 29.48 in 10.0 mi West 10.4 mph 16.1 mph N/A   Overcast
5:35 PM 46.4 °F 42.4 °F 28.4 °F 50% 29.50 in 10.0 mi West 8.1 mph - N/A   Unknown
5:55 PM 46.4 °F 42.9 °F 28.4 °F 50% 29.51 in 10.0 mi West 6.9 mph - N/A   Overcast
6:15 PM 46.4 °F 43.5 °F 28.4 °F 50% 29.52 in 10.0 mi WSW 5.8 mph - N/A   Overcast
6:35 PM 46.4 °F 42.9 °F 28.4 °F 50% 29.53 in 10.0 mi West 6.9 mph - N/A   Overcast
6:55 PM 46.4 °F 43.5 °F 28.4 °F 50% 29.53 in 10.0 mi West 5.8 mph - N/A   Overcast
7:15 PM 46.4 °F 42.9 °F 30.2 °F 53% 29.54 in 10.0 mi WSW 6.9 mph - N/A   Overcast
7:35 PM 46.4 °F 42.9 °F 30.2 °F 53% 29.55 in 10.0 mi West 6.9 mph - N/A   Overcast
7:55 PM 46.4 °F 42.9 °F 30.2 °F 53% 29.55 in 10.0 mi West 6.9 mph - N/A   Mostly Cloudy
8:15 PM 46.4 °F 43.5 °F 30.2 °F 53% 29.56 in 10.0 mi WSW 5.8 mph - N/A   Overcast
8:35 PM 46.4 °F 43.5 °F 30.2 °F 53% 29.56 in 10.0 mi WSW 5.8 mph - N/A   Overcast
8:55 PM 46.4 °F 42.4 °F 30.2 °F 53% 29.57 in 10.0 mi West 8.1 mph - N/A   Overcast
9:15 PM 46.4 °F 43.5 °F 30.2 °F 53% 29.57 in 10.0 mi West 5.8 mph - N/A   Overcast
9:35 PM 46.4 °F 42.9 °F 30.2 °F 53% 29.58 in 10.0 mi West 6.9 mph - N/A   Overcast
9:55 PM 46.4 °F 44.3 °F 30.2 °F 53% 29.58 in 10.0 mi WSW 4.6 mph - N/A   Mostly Cloudy
10:15 PM 46.4 °F 43.5 °F 30.2 °F 53% 29.59 in 10.0 mi SW 5.8 mph - N/A   Mostly Cloudy
10:35 PM 46.4 °F 43.5 °F 30.2 °F 53% 29.59 in 10.0 mi WSW 5.8 mph - N/A   Overcast
10:55 PM 44.6 °F 42.2 °F 30.2 °F 57% 29.59 in 10.0 mi West 4.6 mph - N/A   Overcast
11:15 PM 44.6 °F 42.2 °F 30.2 °F 57% 29.59 in 10.0 mi WSW 4.6 mph - N/A   Overcast
11:35 PM 46.4 °F 45.2 °F 30.2 °F 53% 29.59 in 10.0 mi WSW 3.5 mph - N/A   Overcast
11:55 PM 44.6 °F 43.1 °F 30.2 °F 57% 29.58 in 10.0 mi West 3.5 mph - N/A   Overcast